Probability
1 1 2 3 3 3 2 1 1 1 1 0 0 0 0 0 0 1 2 3 4 4 5 4 4 3 3 3 2 1 0 0 0 0 0 0 0 0 0 0 0 0 0
1 1 1 3 4 3 2 1 2 2 2 1 0 0 0 1 1 2 3 3 4 6 6 5 4 3 3 3 2 2 1 1 1 0 0 0 0 0 0 0 0 0 1
2 2 2 4 6 5 3 3 3 3 3 2 1 1 1 2 3 3 3 4 5 6 6 5 3 3 3 3 3 2 2 2 1 0 0 0 0 0 0 0 0 0 1
4 4 4 6 8 8 5 3 3 3 3 3 3 3 3 3 3 3 4 5 6 6 5 4 3 2 2 2 2 1 1 2 1 0 0 0 0 0 0 0 0 0 1
5 6 6 7 9 9 6 4 3 4 3 4 5 5 4 3 3 4 5 6 5 5 3 2 3 2 1 1 1 1 1 1 1 0 0 0 0 0 0 0 0 0 0
7 8 9 8 9 9 7 5 5 5 4 5 6 6 5 4 4 5 6 5 3 2 1 1 2 2 1 0 1 1 1 2 2 2 1 0 0 0 0 0 0 0 0
11 11 10 10 10 11 10 9 7 6 6 5 6 6 5 4 5 7 7 4 2 1 1 1 1 1 0 0 1 2 2 3 4 4 2 1 1 0 0 0 0 0 0
13 13 12 11 12 14 14 12 10 7 6 5 5 6 5 4 4 6 6 4 2 1 1 2 2 1 0 0 1 3 3 3 3 3 2 1 1 1 0 0 0 0 0
12 13 13 13 14 16 15 13 11 8 6 5 6 5 4 3 3 4 4 3 3 1 1 3 3 2 1 0 1 2 2 2 2 1 0 1 1 1 1 0 0 0 0
10 12 14 15 15 16 15 13 11 9 7 6 7 6 5 4 4 4 4 5 4 2 2 4 4 3 1 0 0 1 1 1 1 1 0 0 0 0 1 0 0 0 0
10 12 14 16 17 18 17 14 12 12 10 9 9 9 9 9 8 8 9 9 8 5 4 5 5 3 1 1 1 2 1 1 2 1 1 1 1 1 2 1 0 0 0
11 13 15 18 20 22 21 17 15 16 17 14 12 13 14 16 15 13 14 15 13 9 7 6 5 4 2 2 3 3 3 3 4 4 3 3 2 3 3 2 1 0 0
15 18 20 21 24 24 23 22 21 21 21 19 16 15 16 18 18 16 15 14 12 10 9 7 5 4 3 4 6 6 5 5 7 7 6 5 4 4 3 3 2 0 0
21 24 24 24 25 25 25 26 28 27 23 20 17 16 15 16 16 15 13 11 10 10 10 9 7 5 3 5 8 9 8 9 10 11 9 6 5 5 4 3 2 1 0
26 26 25 24 24 26 26 28 30 29 25 22 21 19 16 16 14 12 10 9 9 10 11 11 10 8 6 7 10 11 11 12 14 13 12 9 7 6 4 3 3 2 1
23 24 23 22 22 24 24 25 27 27 26 25 25 24 21 17 15 13 11 11 11 12 13 13 13 13 10 9 10 10 11 13 15 14 14 12 9 6 5 3 3 2 2
19 20 21 20 19 19 20 22 24 26 25 25 25 25 24 21 18 18 18 16 15 15 15 15 16 17 14 11 9 9 9 11 12 12 12 12 9 7 6 4 3 2 3
17 18 19 19 18 18 20 24 26 25 24 24 24 24 24 24 24 24 23 21 19 16 16 16 17 18 15 11 8 7 8 9 9 9 10 9 8 7 7 6 4 3 3
17 17 18 19 18 18 21 26 27 24 23 23 23 22 23 26 27 25 23 22 20 18 17 17 16 16 14 10 6 4 5 7 7 7 7 8 7 6 7 7 6 4 4
18 18 18 18 16 17 21 26 28 25 24 22 22 22 23 25 26 24 23 23 22 19 17 16 15 16 13 9 5 3 4 6 7 7 7 7 6 5 4 5 6 5 4
18 18 18 16 14 15 20 24 26 26 26 25 24 24 24 25 25 25 25 24 23 20 17 15 14 14 12 9 5 2 3 6 8 7 7 7 6 3 2 3 4 4 3
14 15 16 16 15 16 17 20 21 25 28 30 29 28 26 25 25 26 27 26 25 22 19 17 16 13 11 8 5 2 2 5 8 8 7 6 4 1 0 1 2 2 2
10 13 15 17 17 17 17 16 18 24 30 33 32 30 27 24 23 24 27 28 27 24 22 21 19 15 12 10 7 2 1 2 4 6 5 4 3 1 0 0 0 0 1
12 15 18 18 18 18 17 17 20 26 31 33 32 29 25 22 21 22 24 26 26 24 23 22 21 18 15 13 10 4 1 1 2 2 2 2 2 2 2 3 2 1 0
15 18 20 19 17 15 15 16 20 24 29 31 29 26 24 21 20 20 20 21 21 20 19 19 18 17 14 12 9 5 3 2 2 1 0 1 2 5 6 6 5 3 2
17 19 20 18 14 12 12 14 17 21 26 29 28 26 25 23 21 20 19 18 16 14 13 14 14 13 11 9 6 4 4 3 2 1 0 0 2 5 7 8 7 6 6
Wind_Speed
7 8 8 8 7 6 6 5 4 3 2 2 1 2 1 1 1 1 3 3 3 3 3 2 2 3 3 3 3 3 3 2 3 4 3 3 3 2 1 2 2 2 2
7 8 7 7 8 7 6 5 4 4 3 2 2 2 2 1 1 1 2 2 3 3 3 3 3 3 3 3 3 3 2 2 2 3 3 2 3 2 1 1 2 2 1
11 10 8 8 8 8 7 6 5 4 3 3 2 2 2 2 2 2 1 1 3 3 3 3 3 3 3 3 2 2 3 2 1 2 3 3 2 0 2 1 1 1 2
10 10 9 9 9 8 7 6 5 4 3 3 3 4 3 2 1 1 1 2 2 3 3 4 3 3 2 2 2 2 2 3 1 0 0 2 4 3 1 1 1 1 2
12 11 11 11 9 8 7 6 5 4 4 4 4 4 3 2 2 2 3 2 2 2 3 3 3 3 2 2 2 2 1 2 2 1 1 1 1 2 3 1 0 1 0
12 11 10 9 8 8 7 6 6 4 4 4 4 5 5 4 3 3 2 1 1 1 2 3 3 2 2 2 2 2 2 1 2 1 1 2 2 2 2 3 2 1 1
12 11 11 10 9 9 8 7 7 5 4 5 5 5 5 5 5 4 3 3 2 2 2 3 2 2 2 2 2 2 1 2 2 1 1 1 2 2 3 4 2 1 0
11 12 13 12 11 11 9 8 7 6 5 5 4 4 4 4 3 3 3 3 3 3 3 3 3 2 2 2 2 1 1 1 2 1 1 1 1 2 3 4 4 2 0
12 12 13 12 11 11 10 10 9 7 6 6 5 4 4 4 4 3 3 3 2 3 3 3 3 3 2 2 2 1 2 2 2 1 1 1 1 1 2 3 4 4 3
11 11 12 12 12 11 10 9 9 8 7 6 5 5 4 4 4 4 4 3 3 3 3 3 3 3 2 2 2 2 2 2 1 1 1 1 1 1 1 2 2 3 4
11 11 11 10 10 9 8 8 7 7 6 6 5 4 4 4 4 4 4 4 3 4 4 3 3 3 2 3 3 2 2 2 1 1 2 2 1 1 1 1 2 2 3
9 10 10 9 9 9 8 8 8 7 6 6 5 5 4 4 4 4 4 4 4 4 4 3 3 3 2 2 3 3 3 3 2 2 2 2 1 1 1 1 2 2 2
8 8 8 9 10 9 8 8 8 7 6 6 5 5 4 4 5 5 4 4 4 3 3 3 4 3 3 3 3 3 3 3 3 3 3 3 2 2 2 2 2 2 2
8 8 7 7 8 9 9 8 7 6 6 6 6 6 5 5 5 5 4 4 4 4 4 4 4 4 3 3 3 3 3 3 3 3 3 3 3 3 3 2 3 3 3
7 8 7 6 6 7 7 7 7 6 6 6 6 6 5 5 4 4 4 4 4 5 4 4 3 3 3 4 4 4 4 3 3 2 2 2 3 4 4 3 3 4 3
8 7 6 6 6 7 7 7 6 6 6 6 6 6 5 5 4 4 4 4 4 4 4 4 4 4 4 4 6 5 4 3 4 3 2 2 2 3 3 4 5 6 6
6 7 7 7 6 7 7 7 7 6 6 6 5 5 5 5 5 5 4 5 4 4 4 5 4 4 5 6 6 7 5 4 4 4 3 3 2 3 2 3 3 3 5
6 5 5 5 5 5 5 6 6 6 5 5 4 4 4 5 5 4 5 5 4 4 4 5 5 4 5 6 7 7 5 3 4 4 5 4 3 3 4 4 2 2 3
5 4 4 4 4 4 5 5 5 5 5 5 5 5 5 4 4 4 5 4 4 4 4 4 5 5 5 6 7 7 4 3 3 3 4 5 5 6 6 5 4 2 2
5 4 3 3 4 3 4 5 5 5 5 6 6 5 5 5 5 5 4 3 4 5 4 4 4 5 5 6 7 7 4 3 3 2 3 5 6 7 8 6 5 4 3
5 4 4 3 3 4 5 5 5 6 6 5 4 4 4 4 5 4 3 3 3 3 3 4 4 4 5 6 8 8 4 5 4 3 3 3 6 7 8 7 6 7 5
4 4 4 2 2 4 5 4 4 4 3 3 3 3 3 4 3 3 3 3 3 3 3 2 3 3 3 5 6 9 8 6 4 4 3 3 5 6 7 6 6 7 5
3 2 3 3 1 2 4 5 4 3 3 3 3 3 3 3 3 4 4 3 3 3 3 3 3 3 3 3 6 8 8 8 4 3 5 5 6 5 5 7 8 6 4
2 2 3 2 1 2 3 4 3 3 4 4 3 3 3 3 3 3 3 4 4 5 4 5 5 4 4 3 3 4 4 5 3 2 2 3 5 4 4 4 4 4 4
1 2 3 2 2 2 2 2 2 3 4 4 3 3 3 4 3 3 4 5 5 6 7 6 5 5 5 6 8 7 5 5 5 3 1 1 1 2 2 2 3 3 3
1 1 1 2 2 1 2 2 2 3 4 3 3 3 3 3 3 3 3 4 4 5 7 7 7 6 7 7 8 10 9 9 8 5 3 3 4 4 4 4 4 3 4
Wind_Direction
167 157 152 150 143 139 137 138 134 142 130 117 114 113 120 131 124 134 138 143 135 131 126 127 120 118 119 124 128 126 124 127 122 101 72 41 49 76 102 113 121 145 157
156 156 154 153 150 151 150 147 148 155 151 148 149 144 144 143 135 121 116 128 125 127 128 129 127 120 116 110 112 121 122 136 140 127 112 65 18 11 50 104 137 154 145
167 164 161 158 154 156 160 159 159 154 150 139 116 101 75 63 62 82 107 124 129 126 121 128 123 121 127 132 136 134 137 148 157 128 135 140 180 294 3 44 125 132 139
167 166 164 163 166 168 164 157 157 151 153 145 136 134 131 138 161 143 130 119 125 131 131 131 128 129 130 138 149 135 144 144 154 309 125 145 150 147 144 355 4 134 151
170 171 170 169 168 165 162 158 152 152 154 150 147 139 135 141 131 112 107 109 121 134 135 134 130 129 138 151 150 130 127 143 156 166 153 108 98 112 139 158 321 2 320
171 172 169 161 162 164 162 157 151 156 155 150 147 144 146 145 133 131 135 134 130 129 135 135 133 146 156 167 166 151 146 156 157 165 154 148 147 164 143 152 160 153 336
172 171 168 168 169 169 168 163 160 165 164 156 157 159 157 155 162 167 164 160 154 157 165 152 150 158 167 168 162 150 156 163 170 186 187 171 177 158 142 138 149 146 351
174 177 177 175 175 172 168 164 165 169 168 166 170 171 166 167 175 178 168 171 175 180 171 162 166 168 169 173 162 156 181 156 162 170 164 158 186 159 153 154 148 135 51
178 179 177 175 175 173 172 171 168 168 170 171 172 174 178 175 174 170 165 172 178 171 166 169 172 179 178 176 160 162 192 171 174 177 170 166 190 165 161 154 155 153 167
176 177 176 175 177 177 173 169 168 170 173 174 177 177 181 177 170 160 168 176 178 173 166 171 175 176 178 172 163 171 186 165 187 172 157 175 190 173 152 161 165 156 158
173 175 175 172 170 165 161 163 169 169 173 177 176 168 171 174 170 171 179 182 178 171 171 172 173 172 174 171 168 182 172 171 188 191 169 193 178 155 152 154 153 156 148
159 161 158 152 154 159 164 169 173 175 178 176 169 169 166 164 169 178 184 179 177 175 173 171 175 184 180 174 174 187 185 175 183 195 175 197 173 161 170 155 154 161 158
145 145 148 155 159 161 164 172 176 179 180 170 165 170 175 176 182 187 185 179 178 181 176 171 183 195 192 183 184 182 184 183 185 183 182 197 172 184 186 170 166 169 160
142 145 150 160 164 165 167 167 170 173 172 168 167 174 185 189 192 188 182 182 183 183 187 188 192 197 197 192 189 183 182 179 183 182 186 193 185 190 183 176 177 162 148
137 148 155 159 159 158 161 164 165 167 168 168 172 185 188 190 188 187 187 187 190 194 195 192 195 200 198 200 190 186 181 177 179 185 191 193 178 180 180 175 175 166 160
147 148 150 154 160 163 165 164 167 171 169 169 180 185 183 185 188 192 191 189 197 197 193 198 200 204 211 199 192 184 183 178 181 192 197 188 171 166 168 172 174 172 170
148 154 159 165 172 176 171 170 173 169 169 176 182 183 184 187 196 198 194 198 202 199 200 206 202 209 214 202 193 187 184 185 190 192 193 203 191 172 167 159 161 173 178
145 155 163 163 169 171 167 162 155 156 164 172 182 187 187 195 197 198 206 207 202 201 205 208 207 212 221 204 191 184 187 194 201 198 194 191 194 188 168 159 160 183 197
152 155 158 153 155 160 161 151 154 160 166 179 185 188 189 190 194 207 217 216 206 209 211 206 201 207 224 209 193 179 178 192 212 212 201 190 193 199 177 163 170 183 220
126 126 124 128 139 162 152 151 166 170 187 197 199 194 190 193 202 213 217 214 206 212 207 206 203 202 215 208 195 182 177 190 208 217 216 204 198 198 184 177 176 190 211
114 118 117 132 173 171 148 162 182 195 204 200 193 194 198 204 211 210 212 209 203 201 207 210 216 214 217 210 197 187 186 197 199 205 217 220 201 199 194 189 193 201 191
107 114 121 132 163 159 152 170 205 213 193 179 187 200 208 216 217 206 217 214 198 198 213 218 233 235 226 210 202 195 198 198 197 207 209 210 202 201 198 200 205 198 183
131 134 143 149 163 167 163 183 216 202 172 170 194 214 221 221 211 206 215 214 202 199 210 209 219 229 227 214 197 194 200 202 205 214 207 207 205 206 207 208 202 195 187
156 146 135 149 195 206 196 205 211 187 172 182 205 216 219 232 232 219 212 211 210 208 207 211 216 220 216 213 199 193 196 198 200 196 200 209 211 208 210 207 200 198 196
174 162 159 179 222 233 234 220 202 182 187 195 207 220 225 228 232 231 227 226 226 216 209 213 208 205 219 220 202 191 196 198 196 170 146 150 179 213 227 224 215 204 195
131 122 173 186 220 220 236 240 211 186 186 199 212 221 228 229 229 234 269 268 253 248 236 227 213 218 220 209 206 205 202 196 176 160 181 200 207 214 216 217 222 218 212